Total_Precipitation_Accumulation
0.93 0.92 1.02 1.03 1.08 1.17 1.18 1.25 1.34 1.41 1.49 1.01 0.80 0.60 0.35 0.29 0.20 0.19 0.29 0.37 0.42 0.13 0.02 0.00 0.00 0.01 0.00 0.00 0.02 0.02 0.09 0.13 0.20 0.26 0.24 0.10 0.03 0.01 0.00 0.00 0.00 0.02 0.04 0.06 0.06 0.10 0.01 0.00 0.00 0.00 0.00 0.00 0.00 0.01
0.86 0.78 0.87 0.84 0.70 0.67 0.54 0.65 0.86 0.98 0.84 0.65 0.60 0.42 0.24 0.22 0.21 0.25 0.26 0.29 0.25 0.15 0.01 0.00 0.00 0.00 0.00 0.00 0.02 0.01 0.08 0.12 0.22 0.24 0.19 0.09 0.04 0.01 0.00 0.01 0.00 0.00 0.00 0.00 0.00 0.00 0.00 0.00 0.00 0.00 0.00 0.00 0.00 0.00
0.80 0.81 0.92 1.09 1.00 0.89 0.75 0.73 0.90 1.14 0.71 0.59 0.45 0.26 0.15 0.17 0.17 0.30 0.30 0.23 0.24 0.25 0.05 0.03 0.02 0.00 0.00 0.00 0.00 0.04 0.07 0.15 0.23 0.21 0.32 0.15 0.06 0.04 0.02 0.01 0.00 0.00 0.00 0.00 0.00 0.00 0.00 0.00 0.00 0.00 0.00 0.00 0.00 0.01
0.74 0.73 0.75 1.00 1.26 1.28 1.33 1.22 1.16 1.09 0.67 0.61 0.39 0.22 0.12 0.11 0.16 0.23 0.11 0.10 0.22 0.26 0.19 0.05 0.01 0.02 0.01 0.02 0.02 0.02 0.09 0.17 0.29 0.48 0.33 0.19 0.08 0.03 0.02 0.01 0.00 0.01 0.00 0.00 0.00 0.00 0.00 0.00 0.00 0.00 0.00 0.00 0.00 0.00
1.04 0.89 0.67 0.66 0.81 0.86 1.03 1.14 1.02 0.89 0.61 0.54 0.44 0.18 0.16 0.18 0.16 0.08 0.02 0.07 0.16 0.32 0.34 0.18 0.16 0.01 0.01 0.05 0.04 0.06 0.11 0.30 0.34 0.59 0.57 0.22 0.09 0.06 0.02 0.01 0.00 0.00 0.00 0.00 0.00 0.00 0.00 0.00 0.00 0.00 0.00 0.00 0.00 0.00
1.01 1.14 1.23 0.82 0.65 0.70 0.84 0.73 0.59 0.61 0.58 0.51 0.27 0.20 0.18 0.11 0.14 0.15 0.20 0.36 0.28 0.32 0.60 0.43 0.34 0.16 0.06 0.09 0.09 0.15 0.22 0.43 0.67 0.50 0.53 0.33 0.13 0.20 0.17 0.05 0.00 0.00 0.00 0.00 0.00 0.00 0.00 0.00 0.00 0.00 0.00 0.00 0.00 0.00
0.81 0.99 1.30 1.42 0.89 0.67 0.78 0.82 0.54 0.57 0.51 0.32 0.21 0.16 0.09 0.05 0.11 0.12 0.25 0.62 0.58 0.57 0.68 0.78 0.66 0.48 0.14 0.23 0.27 0.30 0.31 0.55 0.89 0.66 0.41 0.33 0.29 0.53 0.34 0.05 0.00 0.01 0.01 0.01 0.01 0.00 0.00 0.00 0.00 0.00 0.00 0.00 0.00 0.00
0.74 0.75 0.94 1.41 1.17 0.76 0.65 0.89 0.59 0.55 0.37 0.20 0.14 0.10 0.10 0.17 0.08 0.07 0.05 0.19 0.49 0.88 0.91 1.04 0.98 0.96 0.32 0.53 0.46 0.40 0.39 0.48 1.03 0.74 0.34 0.24 0.35 0.35 0.20 0.02 0.05 0.04 0.04 0.02 0.01 0.02 0.01 0.01 0.00 0.00 0.00 0.00 0.00 0.00
0.91 0.78 0.69 0.89 1.24 0.76 0.67 0.78 0.76 0.48 0.25 0.16 0.16 0.12 0.17 0.12 0.06 0.12 0.21 0.40 0.63 1.02 0.82 0.77 0.90 0.80 0.64 0.64 0.48 0.56 0.47 0.57 0.72 0.54 0.23 0.25 0.27 0.29 0.06 0.08 0.11 0.14 0.15 0.17 0.13 0.06 0.06 0.05 0.02 0.03 0.02 0.03 0.04 0.04
0.98 1.03 0.71 0.63 0.92 0.76 0.66 0.72 0.64 0.32 0.27 0.25 0.12 0.09 0.16 0.04 0.05 0.48 0.83 1.06 1.08 0.85 0.61 0.64 0.54 0.45 0.89 0.67 0.60 0.65 0.35 0.56 0.65 0.31 0.25 0.31 0.19 0.03 0.05 0.12 0.09 0.15 0.30 0.34 0.42 0.30 0.17 0.23 0.14 0.10 0.15 0.11 0.12 0.14
0.90 1.04 0.80 0.65 0.69 0.61 0.61 0.68 0.63 0.44 0.35 0.14 0.10 0.12 0.07 0.08 0.63 1.17 1.34 1.08 0.67 0.48 0.45 0.40 0.40 0.37 0.48 0.55 0.38 0.42 0.50 0.46 0.71 0.47 0.33 0.32 0.30 0.12 0.07 0.05 0.04 0.08 0.18 0.14 0.31 0.32 0.20 0.30 0.35 0.25 0.29 0.33 0.34 0.35
0.94 1.02 0.92 0.74 0.70 0.50 0.55 0.68 0.64 0.27 0.11 0.15 0.22 0.20 0.23 0.56 1.18 1.05 1.02 0.62 0.27 0.22 0.22 0.27 0.28 0.33 0.43 0.30 0.49 0.40 0.36 0.33 0.35 0.32 0.45 0.41 0.27 0.18 0.20 0.09 0.06 0.04 0.06 0.07 0.10 0.22 0.18 0.11 0.16 0.19 0.27 0.30 0.29 0.34
1.00 1.01 0.92 0.73 0.73 0.61 0.62 0.62 0.55 0.41 0.33 0.30 0.41 0.59 0.62 0.76 0.87 0.65 0.48 0.27 0.10 0.09 0.08 0.11 0.26 0.22 0.39 0.36 0.41 0.46 0.27 0.16 0.34 0.45 0.40 0.18 0.06 0.03 0.10 0.19 0.20 0.16 0.10 0.25 0.27 0.18 0.11 0.09 0.11 0.14 0.15 0.11 0.10 0.11
1.11 1.07 0.92 0.83 0.82 0.77 0.72 0.64 0.81 0.64 0.48 0.60 0.74 0.73 0.50 0.40 0.39 0.27 0.17 0.15 0.05 0.04 0.03 0.05 0.12 0.20 0.27 0.24 0.25 0.28 0.15 0.28 0.50 0.33 0.22 0.07 0.06 0.04 0.02 0.05 0.10 0.14 0.13 0.24 0.56 0.60 0.44 0.44 0.40 0.30 0.21 0.15 0.12 0.11
1.20 1.23 1.17 1.19 1.03 0.94 0.86 0.88 1.08 0.82 0.73 0.82 0.89 0.52 0.28 0.22 0.09 0.05 0.04 0.06 0.02 0.02 0.04 0.04 0.13 0.18 0.24 0.35 0.30 0.27 0.33 0.49 0.32 0.26 0.17 0.10 0.09 0.08 0.06 0.03 0.03 0.07 0.13 0.16 0.25 0.33 0.40 0.29 0.16 0.20 0.27 0.25 0.17 0.13
1.62 2.17 1.98 1.45 1.18 1.13 1.08 1.30 1.63 1.59 1.43 1.12 0.92 0.40 0.13 0.07 0.05 0.01 0.01 0.03 0.02 0.02 0.06 0.10 0.18 0.22 0.21 0.32 0.31 0.30 0.49 0.40 0.24 0.16 0.10 0.05 0.09 0.07 0.05 0.04 0.01 0.00 0.01 0.06 0.14 0.19 0.24 0.22 0.16 0.13 0.17 0.27 0.23 0.20
2.83 2.77 1.66 1.20 1.25 1.34 1.52 2.06 2.30 2.08 1.71 1.30 0.51 0.16 0.10 0.06 0.06 0.05 0.02 0.01 0.02 0.07 0.20 0.38 0.47 0.23 0.23 0.28 0.19 0.23 0.34 0.20 0.10 0.06 0.02 0.01 0.01 0.01 0.01 0.00 0.00 0.00 0.01 0.03 0.09 0.13 0.20 0.25 0.24 0.18 0.16 0.16 0.16 0.22
2.45 1.52 1.18 1.33 1.69 2.34 2.98 2.58 1.97 1.77 1.30 0.42 0.06 0.01 0.01 0.03 0.05 0.07 0.04 0.03 0.03 0.12 0.30 0.59 0.39 0.30 0.16 0.10 0.05 0.08 0.11 0.07 0.06 0.03 0.02 0.01 0.00 0.00 0.01 0.02 0.00 0.03 0.12 0.18 0.17 0.16 0.17 0.17 0.16 0.12 0.11 0.10 0.10 0.09
1.44 1.09 1.37 1.67 2.06 2.70 2.88 2.51 1.74 1.20 0.39 0.06 0.00 0.00 0.00 0.00 0.03 0.06 0.05 0.04 0.07 0.15 0.31 0.54 0.52 0.24 0.02 0.01 0.02 0.01 0.00 0.01 0.01 0.01 0.01 0.00 0.00 0.00 0.01 0.04 0.06 0.07 0.20 0.14 0.05 0.06 0.05 0.06 0.09 0.10 0.10 0.10 0.10 0.09
1.96 1.78 1.77 1.86 1.93 2.76 3.03 2.53 1.62 0.66 0.18 0.01 0.00 0.00 0.00 0.00 0.01 0.05 0.10 0.07 0.10 0.41 0.67 0.55 0.18 0.04 0.04 0.04 0.04 0.02 0.00 0.00 0.00 0.00 0.00 0.00 0.00 0.00 0.00 0.02 0.05 0.07 0.08 0.08 0.09 0.10 0.09 0.07 0.06 0.06 0.07 0.08 0.11 0.12
3.84 2.99 2.79 3.13 3.56 3.57 2.87 1.74 0.82 0.28 0.08 0.03 0.00 0.02 0.03 0.02 0.01 0.03 0.11 0.19 0.51 0.83 0.51 0.17 0.05 0.03 0.05 0.06 0.06 0.03 0.00 0.00 0.00 0.00 0.00 0.00 0.00 0.00 0.00 0.00 0.00 0.01 0.02 0.03 0.05 0.06 0.08 0.07 0.08 0.08 0.08 0.10 0.13 0.12
3.94 3.20 4.09 4.47 4.14 3.54 2.45 1.29 0.49 0.21 0.10 0.07 0.05 0.07 0.09 0.08 0.06 0.07 0.17 0.55 0.74 0.31 0.13 0.12 0.13 0.11 0.08 0.07 0.07 0.07 0.05 0.02 0.00 0.00 0.00 0.00 0.00 0.00 0.00 0.00 0.00 0.00 0.00 0.01 0.02 0.01 0.02 0.02 0.03 0.07 0.09 0.12 0.15 0.12
3.39 3.16 3.53 3.59 3.34 2.72 1.69 0.70 0.35 0.24 0.14 0.14 0.14 0.17 0.15 0.09 0.08 0.15 0.44 0.36 0.19 0.10 0.08 0.09 0.12 0.16 0.18 0.14 0.14 0.12 0.11 0.08 0.04 0.02 0.01 0.00 0.00 0.00 0.00 0.00 0.00 0.01 0.02 0.01 0.01 0.02 0.03 0.02 0.03 0.05 0.05 0.08 0.16 0.20
3.33 3.68 3.71 3.47 2.43 1.76 1.17 0.88 0.54 0.27 0.27 0.18 0.18 0.14 0.07 0.05 0.17 0.33 0.28 0.05 0.03 0.04 0.09 0.12 0.11 0.11 0.10 0.12 0.14 0.18 0.21 0.19 0.13 0.09 0.07 0.05 0.03 0.02 0.01 0.01 0.01 0.00 0.01 0.01 0.01 0.01 0.01 0.01 0.02 0.06 0.07 0.09 0.13 0.17
4.17 4.31 3.17 2.67 1.47 0.68 0.40 0.30 0.27 0.23 0.22 0.16 0.12 0.08 0.06 0.09 0.17 0.18 0.05 0.00 0.01 0.03 0.07 0.09 0.11 0.12 0.11 0.11 0.11 0.11 0.12 0.19 0.22 0.19 0.18 0.15 0.12 0.11 0.09 0.06 0.03 0.01 0.01 0.03 0.02 0.01 0.00 0.00 0.01 0.04 0.07 0.11 0.16 0.19
3.68 2.20 1.43 0.62 0.30 0.09 0.06 0.06 0.06 0.04 0.06 0.11 0.12 0.12 0.14 0.27 0.36 0.16 0.01 0.00 0.01 0.04 0.05 0.07 0.08 0.09 0.09 0.09 0.11 0.13 0.13 0.15 0.17 0.19 0.22 0.25 0.21 0.18 0.17 0.16 0.12 0.07 0.05 0.06 0.09 0.07 0.04 0.02 0.02 0.05 0.08 0.11 0.19 0.20
2.49 1.37 0.51 0.11 0.04 0.04 0.03 0.01 0.02 0.04 0.09 0.09 0.06 0.06 0.15 0.34 0.18 0.05 0.01 0.00 0.01 0.03 0.05 0.09 0.14 0.14 0.11 0.10 0.11 0.12 0.15 0.18 0.19 0.16 0.22 0.33 0.34 0.27 0.20 0.17 0.16 0.13 0.13 0.14 0.12 0.11 0.09 0.08 0.08 0.10 0.13 0.15 0.16 0.17
1.31 0.38 0.10 0.09 0.03 0.02 0.04 0.07 0.12 0.11 0.06 0.03 0.06 0.09 0.13 0.08 0.01 0.00 0.00 0.01 0.03 0.03 0.05 0.09 0.13 0.15 0.14 0.12 0.14 0.16 0.18 0.21 0.25 0.26 0.30 0.36 0.40 0.40 0.35 0.30 0.31 0.32 0.30 0.22 0.19 0.19 0.17 0.16 0.15 0.18 0.20 0.16 0.12 0.12
0.28 0.14 0.11 0.15 0.10 0.07 0.07 0.06 0.04 0.02 0.00 0.01 0.04 0.02 0.00 0.00 0.00 0.00 0.01 0.02 0.02 0.04 0.06 0.09 0.12 0.14 0.17 0.18 0.20 0.23 0.24 0.24 0.20 0.19 0.15 0.20 0.29 0.41 0.46 0.42 0.44 0.44 0.39 0.36 0.32 0.28 0.28 0.30 0.30 0.30 0.30 0.29 0.25 0.25
0.06 0.01 0.02 0.05 0.10 0.13 0.07 0.03 0.02 0.01 0.01 0.01 0.01 0.01 0.01 0.01 0.01 0.02 0.02 0.04 0.05 0.08 0.11 0.14 0.17 0.19 0.21 0.22 0.23 0.24 0.25 0.28 0.26 0.17 0.16 0.16 0.21 0.32 0.40 0.41 0.45 0.48 0.47 0.42 0.48 0.53 0.52 0.51 0.51 0.48 0.43 0.39 0.35 0.31
0.01 0.01 0.01 0.02 0.02 0.02 0.03 0.03 0.02 0.02 0.03 0.02 0.03 0.03 0.02 0.02 0.02 0.02 0.02 0.04 0.07 0.11 0.16 0.19 0.22 0.27 0.28 0.30 0.30 0.27 0.26 0.32 0.37 0.36 0.31 0.34 0.32 0.32 0.38 0.44 0.45 0.47 0.48 0.44 0.39 0.37 0.36 0.32 0.29 0.27 0.28 0.27 0.26 0.25
0.05 0.02 0.01 0.01 0.02 0.04 0.04 0.04 0.03 0.03 0.02 0.02 0.02 0.02 0.02 0.01 0.01 0.01 0.03 0.06 0.10 0.13 0.17 0.21 0.21 0.26 0.31 0.31 0.33 0.35 0.31 0.31 0.36 0.40 0.37 0.35 0.34 0.34 0.38 0.41 0.44 0.44 0.45 0.44 0.40 0.39 0.38 0.37 0.39 0.35 0.35 0.35 0.32 0.29
0.15 0.11 0.08 0.08 0.12 0.09 0.05 0.06 0.08 0.06 0.04 0.02 0.02 0.01 0.02 0.01 0.01 0.02 0.03 0.07 0.11 0.14 0.16 0.21 0.26 0.28 0.28 0.28 0.31 0.35 0.38 0.40 0.41 0.45 0.47 0.45 0.44 0.47 0.43 0.39 0.41 0.41 0.41 0.41 0.45 0.45 0.47 0.43 0.41 0.40 0.36 0.34 0.31 0.30